Location: General Nathan Twining Observatory
(34.5931°N, 106.8201°W)
Time: 03:21:49
(UTC-07:00)

ADEOS II - Visible Passes

Search period start: 27 January 2015 00:00
Search period end: 06 February 2015 00:00
Orbit: 800 x 803 km, 98.3° (Epoch: 26 January)

Date Brightness Start Highest point End Pass type
(mag) Time Alt. Az. Time Alt. Az. Time Alt. Az.
27 Jan 4.7 04:45:30 10° NE 04:49:00 19° E 04:52:43 10° SE visible
27 Jan 2.4 06:24:02 10° N 06:29:02 44° WNW 06:33:59 10° SW visible
28 Jan 2.0 05:57:43 10° N 06:03:00 81° WNW 06:08:16 10° SSW visible
29 Jan 2.8 05:31:43 10° NNE 05:36:53 56° E 05:42:03 10° S visible
29 Jan 5.3 18:30:19 10° WSW 18:33:04 14° W 18:35:31 10° WNW visible
30 Jan 4.0 05:06:04 10° NE 05:10:39 31° E 05:15:18 10° SSE visible
30 Jan 4.7 18:02:17 10° SSW 18:06:39 25° W 18:10:54 10° NW visible
31 Jan 4.9 04:41:04 10° NE 04:44:17 17° E 04:47:44 10° SE visible
31 Jan 2.3 06:19:19 10° N 06:24:22 49° WNW 06:29:24 10° SW visible
01 Feb 2.1 05:53:02 10° NNE 05:58:20 88° WNW 06:03:36 10° SSW visible
02 Feb 3.0 05:27:05 10° NNE 05:32:11 51° E 05:37:18 10° S visible
02 Feb 5.2 18:25:12 10° SW 18:28:20 15° W 18:31:11 10° WNW visible
03 Feb 4.1 05:01:30 10° NE 05:05:56 28° E 05:10:27 10° SSE visible
04 Feb 5.0 04:36:40 10° ENE 04:39:32 15° E 04:42:41 10° SE visible
04 Feb 2.2 06:14:34 10° N 06:19:42 53° WNW 06:24:47 10° SSW visible
05 Feb 2.1 05:48:21 10° NNE 05:53:38 85° ESE 05:58:55 10° SSW visible
